Date,TemperatureHighF,TemperatureAvgF,TemperatureLowF,DewpointHighF,DewpointAvgF,DewpointLowF,HumidityHigh,HumidityAvg,HumidityLow,PressureMaxIn,PressureMinIn,WindSpeedMaxMPH,WindSpeedAvgMPH,GustSpeedMaxMPH,PrecipitationSumIn
2013-3-1,72,66,60,63,59,53,86,80,70,30.17,30.06,4,1,0,0.00
2013-3-2,75,67,62,62,60,56,87,78,61,30.17,30.06,4,1,0,0.00
2013-3-3,73,66,58,63,59,53,87,79,67,30.17,30.08,5,1,0,0.00
2013-3-4,74,66,59,65,60,55,89,80,68,30.19,30.09,4,2,0,0.00
2013-3-5,74,66,60,62,58,55,89,76,60,30.17,30.07,5,2,0,0.00
2013-3-6,75,67,60,65,58,53,86,74,64,30.17,30.08,6,2,0,0.00
2013-3-7,74,66,59,65,60,52,94,81,68,30.12,30.02,4,2,0,0.00
2013-3-8,73,66,58,65,61,54,93,82,68,30.09,29.95,4,2,0,0.00
2013-3-9,78,69,61,67,60,53,90,74,59,30.03,29.93,10,4,0,0.00
2013-3-10,76,70,66,68,63,55,95,77,65,30.06,29.93,9,4,0,0.00
2013-3-11,76,69,62,68,64,57,94,83,71,30.10,29.99,5,2,0,0.00
2013-3-12,74,69,64,67,64,58,93,84,76,30.10,30.01,4,1,0,0.00
2013-3-13,76,68,61,67,61,57,90,80,67,30.11,30.02,5,2,0,0.00
2013-3-14,75,69,62,67,63,58,92,82,70,30.11,30.02,4,2,0,0.00
2013-3-15,72,68,65,67,64,61,96,89,81,30.06,29.96,4,1,0,0.00
2013-3-16,69,66,63,65,61,55,94,85,73,30.06,29.96,6,1,0,0.00
2013-3-17,71,66,62,62,59,56,87,78,69,30.07,29.97,6,2,0,0.00
2013-3-18,77,68,60,63,59,55,90,74,52,30.07,29.96,6,2,0,0.00
2013-3-19,77,68,60,65,59,54,86,74,55,30.07,29.98,5,2,0,0.00
2013-3-20,74,68,63,67,62,55,97,81,59,30.11,30.00,5,1,0,0.00
2013-3-21,77,70,62,69,64,59,94,82,64,30.11,30.00,6,2,0,0.00
2013-3-22,76,70,64,68,64,60,91,82,67,30.10,29.96,7,2,0,0.00
2013-3-23,75,69,64,68,65,60,96,86,70,30.05,29.93,9,2,0,0.00
2013-3-24,75,68,65,68,65,61,97,88,74,30.08,29.95,8,2,0,0.00
2013-3-25,76,69,63,69,64,58,93,84,74,30.06,29.96,7,2,0,0.00
2013-3-26,74,69,64,68,64,60,90,85,76,30.08,29.98,4,1,0,0.00
2013-3-27,73,68,63,67,64,59,97,87,75,30.06,29.96,6,2,0,0.00
2013-3-28,76,69,64,68,64,59,96,85,72,30.06,29.96,7,2,0,0.00
2013-3-29,75,68,64,68,63,58,95,83,69,30.08,29.99,5,2,0,0.00
2013-3-30,74,68,63,68,63,-100,94,87,77,30.10,29.98,5,2,0,0.00
2013-3-31,75,68,61,66,61,55,95,81,67,30.06,29.98,8,3,0,0.00